EW5836 Weather Reports


Display with metric or nautical units.
time (UTC)temp
F
wind
direction
speed
MPH
gust
MPH
rain 1hr
in
rain 24hr
in
rain mn
in
humidity
%
barometer
mb
20260831044549 70 308 0.0 0.0 0.00 0.00 0.00 78 1016.2
20260831044058 70 308 0.0 0.0 0.00 0.00 0.00 78 1016.2
20260831043535 70 308 0.0 0.0 0.00 0.00 0.00 79 1016.2
20260831043041 69 308 0.0 0.0 0.00 0.00 0.00 80 1016.2
20260831042557 70 305 0.0 0.0 0.00 0.00 0.00 79 1016.1
20260831042043 70 305 0.0 0.0 0.00 0.00 0.00 78 1016.0
20260831041605 70 305 0.0 0.0 0.00 0.00 0.00 78 1016.0
20260831041103 70 305 0.0 0.0 0.00 0.00 0.00 78 1016.0
20260831040545 70 305 0.0 0.0 0.00 0.00 0.00 77 1016.1
20260831040034 71 305 0.0 0.0 0.00 0.00 0.00 77 1016.0
20260831035538 71 305 0.0 0.0 0.00 0.00 0.00 77 1015.9
20260831035045 71 305 0.0 0.0 0.00 0.00 0.00 77 1015.9
20260831034544 71 305 0.0 0.0 0.00 0.00 0.00 77 1015.8
20260831034034 71 305 0.0 0.0 0.00 0.00 0.00 76 1015.8
20260831033534 71 305 0.0 0.0 0.00 0.00 0.00 75 1015.9
20260831033043 72 305 0.0 0.0 0.00 0.00 0.00 76 1016.0
20260831032544 72 305 0.0 0.0 0.00 0.00 0.00 76 1016.0
20260831032103 72 305 0.0 0.0 0.00 0.00 0.00 76 1016.1
20260831031545 72 305 0.0 0.0 0.00 0.00 0.00 76 1016.1
20260831031058 72 305 0.0 0.0 0.00 0.00 0.00 75 1016.1
20260831030532 72 305 0.0 0.0 0.00 0.00 0.00 75 1016.2
20260831030109 72 305 0.0 0.0 0.00 0.00 0.00 75 1016.3
20260831025550 72 305 0.0 0.0 0.00 0.00 0.00 74 1016.3
20260831025038 72 305 0.0 0.0 0.00 0.00 0.00 74 1016.2
20260831024542 73 305 0.0 0.0 0.00 0.00 0.00 73 1016.1
20260831024057 72 305 0.0 0.0 0.00 0.00 0.00 73 1016.2
20260831023532 72 305 0.0 0.0 0.00 0.00 0.00 73 1016.2
20260831023036 72 302 0.0 0.0 0.00 0.00 0.00 75 1016.2
20260831022542 72 320 0.0 0.0 0.00 0.00 0.00 75 1016.2
20260831022050 72 320 0.0 0.0 0.00 0.00 0.00 75 1016.1
20260831021546 72 320 0.0 0.0 0.00 0.00 0.00 75 1016.0
20260831021104 72 320 0.0 0.0 0.00 0.00 0.00 74 1016.0
20260831020546 73 320 0.0 0.0 0.00 0.00 0.00 74 1016.1
20260831015543 73 320 0.0 0.0 0.00 0.00 0.00 73 1016.1
20260831015037 73 320 0.0 0.0 0.00 0.00 0.00 73 1016.2
20260831014602 73 320 0.0 0.0 0.00 0.00 0.00 73 1016.2
20260831014058 73 320 0.0 0.0 0.00 0.00 0.00 73 1016.2
20260831013533 73 322 0.0 0.0 0.00 0.00 0.00 73 1016.2
20260831013041 73 322 0.0 0.0 0.00 0.00 0.00 73 1016.2
20260831012543 73 323 0.0 0.0 0.00 0.00 0.00 74 1016.2
20260831012033 72 323 0.0 0.0 0.00 0.00 0.00 75 1016.3
20260831011537 72 323 0.0 0.0 0.00 0.00 0.00 76 1016.2
20260831011043 72 323 0.0 0.0 0.00 0.00 0.00 76 1016.1
20260831010544 72 323 0.0 0.0 0.00 0.00 0.00 76 1016.0
20260831010033 73 323 0.0 0.0 0.00 0.00 0.00 75 1016.1
20260831005535 73 323 0.0 0.0 0.00 0.00 0.00 74 1016.2
20260831005051 74 323 0.0 0.0 0.00 0.00 0.00 73 1016.1
20260831004547 74 323 0.0 0.0 0.00 0.00 0.00 73 1016.1
20260831004043 74 323 0.0 0.0 0.00 0.00 0.00 73 1016.3
20260831003544 74 323 0.0 0.0 0.00 0.00 0.00 73 1016.2
20260831003034 74 323 0.0 0.0 0.00 0.00 0.00 72 1016.3
20260831002613 74 323 0.0 0.0 0.00 0.00 0.00 73 1016.3
20260831002109 74 323 0.0 0.0 0.00 0.00 0.00 72 1016.3
20260831001551 74 323 0.0 0.0 0.00 0.00 0.00 72 1016.3
20260831001036 74 323 0.0 0.0 0.00 0.00 0.00 72 1016.4
20260831000536 74 261 0.0 0.0 0.00 0.00 0.00 72 1016.4
20260831000045 74 261 0.0 0.0 0.00 0.00 0.00 72 1016.5
20260830235546 74 267 0.0 0.0 0.00 0.00 0.00 72 1016.5
20260830235037 74 292 0.0 0.0 0.00 0.00 0.00 72 1016.5
20260830234542 74 292 0.0 0.0 0.00 0.00 0.00 72 1016.5
20260830234100 74 292 0.0 0.0 0.00 0.00 0.00 72 1016.5
20260830233533 74 292 0.0 0.0 0.00 0.00 0.00 73 1016.7
20260830233044 74 292 0.0 0.0 0.00 0.00 0.00 72 1016.6
20260830232546 74 292 0.0 0.0 0.00 0.00 0.00 73 1016.7
20260830232056 74 292 0.0 0.0 0.00 0.00 0.00 73 1016.7
20260830231536 74 292 0.0 0.0 0.00 0.00 0.00 74 1016.8
20260830231042 74 292 0.0 0.0 0.00 0.00 0.00 74 1016.9
20260830230542 74 292 0.0 0.0 0.00 0.00 0.00 74 1016.9
20260830230032 74 292 0.0 0.0 0.00 0.00 0.00 74 1016.9
20260830225534 74 292 0.0 0.0 0.00 0.00 0.00 74 1017.0
20260830225040 74 292 0.0 0.0 0.00 0.00 0.00 73 1017.0
20260830224543 75 292 0.0 0.0 0.00 0.00 0.00 72 1016.8
20260830224032 74 292 0.0 0.0 0.00 0.00 0.00 72 1016.9
20260830223536 74 286 0.0 0.0 0.00 0.00 0.00 72 1016.9
20260830223045 74 286 0.0 0.0 0.00 0.00 0.00 73 1016.9
20260830222548 74 286 0.0 0.0 0.00 0.00 0.00 72 1016.9
20260830222102 75 286 0.0 0.0 0.00 0.00 0.00 72 1016.8
20260830221541 75 286 0.0 0.0 0.00 0.00 0.00 71 1016.8
20260830221100 75 286 0.0 0.0 0.00 0.00 0.00 71 1016.7
20260830220534 75 287 0.0 0.0 0.00 0.00 0.00 72 1016.8
20260830220042 75 286 0.0 0.0 0.00 0.00 0.00 72 1016.7
20260830215556 75 285 0.0 0.0 0.00 0.00 0.00 72 1016.7
20260830215043 75 285 0.0 0.0 0.00 0.00 0.00 71 1016.6
20260830214548 76 285 0.0 0.0 0.00 0.00 0.00 70 1016.7
20260830214120 76 285 0.0 0.0 0.00 0.00 0.00 70 1016.6
20260830213533 77 285 0.0 0.0 0.00 0.00 0.00 68 1016.6
20260830213050 77 326 0.0 0.0 0.00 0.00 0.00 68 1016.7
20260830212534 77 326 0.0 8.0 0.00 0.00 0.00 67 1016.7
20260830212042 77 324 3.0 9.0 0.00 0.00 0.00 66 1016.6
20260830211546 77 327 4.0 9.0 0.00 0.00 0.00 67 1016.6
20260830211045 77 336 3.0 10.0 0.00 0.00 0.00 68 1016.5
20260830210548 77 316 2.0 10.0 0.00 0.00 0.00 67 1016.5
20260830210035 77 335 3.0 8.0 0.00 0.00 0.00 67 1016.5
20260830205539 77 309 2.0 7.0 0.00 0.00 0.00 67 1016.5
20260830205049 77 316 1.0 6.0 0.00 0.00 0.00 67 1016.4
20260830204550 77 335 2.0 6.0 0.00 0.00 0.00 67 1016.4
20260830204107 77 304 1.0 5.0 0.00 0.00 0.00 67 1016.3
20260830203547 77 305 0.0 6.0 0.00 0.00 0.00 67 1016.3
20260830203047 77 326 3.0 6.0 0.00 0.00 0.00 67 1016.3
20260830202547 77 321 0.0 4.0 0.00 0.00 0.00 67 1016.3
20260830202045 77 318 0.0 3.0 0.00 0.00 0.00 67 1016.3
20260830201546 77 317 0.0 4.0 0.00 0.00 0.00 67 1016.3
20260830201120 77 316 1.0 5.0 0.00 0.00 0.00 68 1016.3
20260830200533 77 314 2.0 5.0 0.00 0.00 0.00 69 1016.3
20260830200042 77 326 1.0 4.0 0.00 0.00 0.00 69 1016.2
20260830195544 77 327 0.0 3.0 0.00 0.00 0.00 69 1016.3
20260830195035 77 328 0.0 0.0 0.00 0.00 0.00 70 1016.2
20260830194536 77 328 0.0 0.0 0.00 0.00 0.00 70 1016.2
20260830194043 77 328 0.0 0.0 0.00 0.00 0.00 69 1016.2
20260830193546 77 328 0.0 3.0 0.00 0.00 0.00 69 1016.2
20260830193041 77 328 0.0 3.0 0.00 0.00 0.00 68 1016.2
20260830192600 77 329 0.0 3.0 0.00 0.00 0.00 69 1016.3
20260830192057 77 330 0.0 3.0 0.00 0.00 0.00 69 1016.2
20260830191538 77 332 0.0 0.0 0.00 0.00 0.00 69 1016.2
20260830191058 77 332 0.0 0.0 0.00 0.00 0.00 69 1016.0
20260830190535 77 332 0.0 0.0 0.00 0.00 0.00 69 1016.0
20260830190044 77 332 0.0 0.0 0.00 0.00 0.00 69 1016.0
20260830185547 78 332 0.0 0.0 0.00 0.00 0.00 70 1015.9
20260830185038 78 332 0.0 0.0 0.00 0.00 0.00 68 1015.9
20260830184541 79 332 0.0 0.0 0.00 0.00 0.00 67 1015.8
20260830184047 79 332 0.0 0.0 0.00 0.00 0.00 66 1015.8
20260830183550 79 332 0.0 0.0 0.00 0.00 0.00 64 1015.7
20260830183036 80 331 0.0 0.0 0.00 0.00 0.00 63 1015.6
20260830182535 81 332 0.0 0.0 0.00 0.00 0.00 62 1015.6
20260830182043 81 332 0.0 0.0 0.00 0.00 0.00 61 1015.6
20260830181544 81 332 0.0 0.0 0.00 0.00 0.00 60 1015.5
20260830181032 81 332 0.0 0.0 0.00 0.00 0.00 59 1015.5
20260830180534 81 332 0.0 2.0 0.00 0.00 0.00 59 1015.4
20260830180037 81 331 0.0 0.0 0.00 0.00 0.00 58 1015.4
20260830175539 81 331 0.0 0.0 0.00 0.00 0.00 58 1015.2
20260830175058 81 331 0.0 2.0 0.00 0.00 0.00 58 1015.3
20260830174534 81 328 0.0 2.0 0.00 0.00 0.00 58 1015.2
20260830174045 81 322 0.0 2.0 0.00 0.00 0.00 59 1015.2
20260830173547 81 322 0.0 4.0 0.00 0.00 0.00 58 1015.2
20260830173036 81 322 1.0 4.0 0.00 0.00 0.00 60 1015.2
20260830172540 81 303 0.0 0.0 0.00 0.00 0.00 61 1015.2
20260830172032 82 303 0.0 0.0 0.00 0.00 0.00 61 1015.2
20260830171535 82 303 0.0 0.0 0.00 0.00 0.00 60 1015.1
20260830171041 82 303 0.0 0.0 0.00 0.00 0.00 59 1015.2
20260830170543 82 287 0.0 0.0 0.00 0.00 0.00 58 1015.2
20260830170039 83 287 0.0 0.0 0.00 0.00 0.00 57 1015.2
20260830165542 84 281 0.0 0.0 0.00 0.00 0.00 56 1015.2
20260830165101 85 281 0.0 0.0 0.00 0.00 0.00 54 1015.2
20260830164535 86 262 0.0 0.0 0.00 0.00 0.00 51 1015.2
20260830164046 87 262 0.0 0.0 0.00 0.00 0.00 50 1015.1
20260830163549 88 174 0.0 0.0 0.00 0.00 0.00 50 1015.1
20260830163040 89 173 0.0 0.0 0.00 0.00 0.00 44 1015.1
20260830162542 88 173 0.0 0.0 0.00 0.00 0.00 45 1015.0
20260830162033 89 173 0.0 0.0 0.00 0.00 0.00 45 1015.1
20260830161550 89 173 0.0 0.0 0.00 0.00 0.00 48 1015.1
20260830161105 88 173 0.0 0.0 0.00 0.00 0.00 46 1015.1
20260830160602 88 173 0.0 0.0 0.00 0.00 0.00 46 1015.1
20260830160057 88 173 0.0 0.0 0.00 0.00 0.00 46 1015.1
20260830155538 88 173 0.0 0.0 0.00 0.00 0.00 46 1015.1
20260830155047 87 173 0.0 0.0 0.00 0.00 0.00 48 1015.1
20260830154547 87 173 0.0 0.0 0.00 0.00 0.00 48 1015.2
20260830154103 87 173 0.0 0.0 0.00 0.00 0.00 47 1015.2
20260830153535 87 173 0.0 0.0 0.00 0.00 0.00 47 1015.3
20260830153041 87 56 0.0 0.0 0.00 0.00 0.00 47 1015.3
20260830152543 87 56 0.0 0.0 0.00 0.00 0.00 47 1015.3
20260830152032 87 58 0.0 0.0 0.00 0.00 0.00 48 1015.4
20260830151536 87 57 0.0 0.0 0.00 0.00 0.00 47 1015.4
20260830151044 86 57 0.0 0.0 0.00 0.00 0.00 48 1015.3
20260830150546 86 58 0.0 0.0 0.00 0.00 0.00 48 1015.4
20260830150032 86 52 0.0 0.0 0.00 0.00 0.00 48 1015.4
20260830145536 85 162 0.0 0.0 0.00 0.00 0.00 48 1015.3
20260830145042 85 162 0.0 0.0 0.00 0.00 0.00 50 1015.4
20260830144547 86 162 0.0 7.0 0.00 0.00 0.00 49 1015.4
20260830144105 86 133 0.0 7.0 0.00 0.00 0.00 49 1015.4
20260830143547 86 173 0.0 0.0 0.00 0.00 0.00 48 1015.4
20260830143100 87 227 0.0 1.0 0.00 0.00 0.00 49 1015.5
20260830142534 86 259 0.0 4.0 0.00 0.00 0.00 48 1015.5
20260830142039 87 129 0.0 4.0 0.00 0.00 0.00 49 1015.5
20260830141541 86 122 0.0 0.0 0.00 0.00 0.00 48 1015.5
20260830141049 86 123 0.0 0.0 0.00 0.00 0.00 48 1015.6
20260830140551 86 114 0.0 3.0 0.00 0.00 0.00 49 1015.6
20260830140037 86 116 0.0 9.0 0.00 0.00 0.00 49 1015.7
20260830135537 86 141 5.0 9.0 0.00 0.00 0.00 48 1015.8
20260830135046 86 137 0.0 0.0 0.00 0.00 0.00 49 1015.9
20260830134546 86 138 0.0 1.0 0.00 0.00 0.00 49 1015.9
20260830134103 86 161 0.0 11.0 0.00 0.00 0.00 50 1016.0
20260830133546 86 166 3.0 11.0 0.00 0.00 0.00 50 1016.0
20260830133055 86 124 2.0 7.0 0.00 0.00 0.00 50 1015.9
20260830132536 86 157 0.0 5.0 0.00 0.00 0.00 48 1016.0
20260830132047 85 157 0.0 6.0 0.00 0.00 0.00 49 1016.1
20260830131551 85 155 2.0 6.0 0.00 0.00 0.00 50 1016.1
20260830131040 85 131 0.0 0.0 0.00 0.00 0.00 50 1016.1
20260830130543 85 149 0.0 11.0 0.00 0.00 0.00 50 1016.1
20260830130055 85 122 6.0 13.0 0.00 0.00 0.00 50 1016.2
20260830125536 86 141 1.0 7.0 0.00 0.00 0.00 52 1016.1
20260830125043 85 241 0.0 3.0 0.00 0.00 0.00 51 1016.2
20260830124545 85 141 0.0 7.0 0.00 0.00 0.00 51 1016.3
20260830124044 85 149 1.0 9.0 0.00 0.00 0.00 52 1016.3
20260830123548 85 189 2.0 7.0 0.00 0.00 0.00 52 1016.4
20260830123057 85 94 0.0 2.0 0.00 0.00 0.00 51 1016.5
20260830122538 84 67 0.0 7.0 0.00 0.00 0.00 53 1016.5
20260830122109 84 126 1.0 8.0 0.00 0.00 0.00 52 1016.5
20260830121550 85 108 4.0 8.0 0.00 0.00 0.00 54 1016.5
20260830121039 84 135 0.0 5.0 0.00 0.00 0.00 54 1016.6
20260830120603 84 164 0.0 8.0 0.00 0.00 0.00 53 1016.6
20260830120034 84 131 3.0 8.0 0.00 0.00 0.00 52 1016.6
20260830115536 84 113 2.0 8.0 0.00 0.00 0.00 53 1016.7
20260830115043 85 149 4.0 8.0 0.00 0.00 0.00 52 1016.6
20260830114546 84 141 0.0 10.0 0.00 0.00 0.00 53 1016.7
20260830114032 84 141 4.0 10.0 0.00 0.00 0.00 52 1016.7
20260830113534 84 74 0.0 3.0 0.00 0.00 0.00 51 1016.7
20260830113043 84 153 0.0 9.0 0.00 0.00 0.00 51 1016.7
20260830112544 84 147 3.0 9.0 0.00 0.00 0.00 52 1016.8
20260830112056 84 149 0.0 6.0 0.00 0.00 0.00 53 1016.8
20260830111536 84 155 0.0 6.0 0.00 0.00 0.00 54 1016.9
20260830111044 83 239 0.0 10.0 0.00 0.00 0.00 53 1016.9
20260830110546 83 170 1.0 10.0 0.00 0.00 0.00 54 1017.0
20260830105534 83 145 5.0 10.0 0.00 0.00 0.00 55 1016.9
20260830105110 83 45 0.0 7.0 0.00 0.00 0.00 55 1017.0
20260830104544 83 92 2.0 7.0 0.00 0.00 0.00 56 1017.0
20260830104034 83 140 3.0 6.0 0.00 0.00 0.00 55 1017.1
20260830103558 82 30 0.0 5.0 0.00 0.00 0.00 56 1017.1
20260830103041 82 128 0.0 10.0 0.00 0.00 0.00 55 1017.2
20260830102542 82 133 3.0 10.0 0.00 0.00 0.00 54 1017.3
20260830102100 82 152 2.0 8.0 0.00 0.00 0.00 54 1017.3
20260830101533 82 143 3.0 7.0 0.00 0.00 0.00 53 1017.4
20260830101039 82 134 0.0 7.0 0.00 0.00 0.00 53 1017.4
20260830100704 82 134 0.0 8.0 0.00 0.00 0.00 53 1017.4
20260830100106 82 101 0.0 1.0 0.00 0.00 0.00 54 1017.4
20260830095546 82 10 0.0 2.0 0.00 0.00 0.00 54 1017.5
20260830095057 81 84 0.0 9.0 0.00 0.00 0.00 55 1017.5
20260830094537 81 141 1.0 9.0 0.00 0.00 0.00 54 1017.6
20260830094044 81 153 0.0 8.0 0.00 0.00 0.00 53 1017.5
20260830093546 81 156 2.0 8.0 0.00 0.00 0.00 52 1017.6
20260830093035 81 143 3.0 7.0 0.00 0.00 0.00 53 1017.6
20260830092538 80 155 2.0 6.0 0.00 0.00 0.00 54 1017.6
20260830092046 80 73 0.0 7.0 0.00 0.00 0.00 51 1017.7
20260830091550 80 102 1.0 7.0 0.00 0.00 0.00 50 1017.7
20260830091038 80 108 0.0 6.0 0.00 0.00 0.00 52 1017.7
20260830090538 80 77 2.0 6.0 0.00 0.00 0.00 52 1017.7
20260830090044 80 81 0.0 1.0 0.00 0.00 0.00 51 1017.7
20260830085547 79 80 0.0 0.0 0.00 0.00 0.00 51 1017.7
20260830085045 79 150 0.0 0.0 0.00 0.00 0.00 51 1017.7
20260830084548 79 130 0.0 1.0 0.00 0.00 0.00 52 1017.8
20260830084034 78 137 0.0 0.0 0.00 0.00 0.00 54 1017.8
20260830083535 78 63 0.0 0.0 0.00 0.00 0.00 55 1017.9
20260830083042 77 145 0.0 1.0 0.00 0.00 0.00 55 1017.8
20260830082543 78 108 0.0 1.0 0.00 0.00 0.00 57 1017.8
20260830082032 77 157 0.0 0.0 0.00 0.00 0.00 60 1017.7
20260830081534 77 160 0.0 0.0 0.00 0.00 0.00 60 1017.7
20260830081110 77 131 0.0 0.0 0.00 0.00 0.00 61 1017.7
20260830080551 76 155 0.0 0.0 0.00 0.00 0.00 63 1017.7
20260830080036 76 155 0.0 0.0 0.00 0.00 0.00 64 1017.7
20260830075537 76 160 0.0 0.0 0.00 0.00 0.00 65 1017.7
20260830075045 76 140 0.0 0.0 0.00 0.00 0.00 68 1017.7
20260830074548 75 139 0.0 1.0 0.00 0.00 0.00 67 1017.6
20260830074037 75 139 0.0 1.0 0.00 0.00 0.00 67 1017.5
20260830073535 76 147 0.0 0.0 0.00 0.00 0.00 68 1017.5
20260830073045 75 111 0.0 1.0 0.00 0.00 0.00 67 1017.4
20260830072544 75 108 0.0 1.0 0.00 0.00 0.00 65 1017.4
20260830072121 75 97 0.0 0.0 0.00 0.00 0.00 66 1017.4
20260830071533 75 316 0.0 0.0 0.00 0.00 0.00 67 1017.4
20260830071038 75 316 0.0 0.0 0.00 0.00 0.00 68 1017.4
20260830070542 74 316 0.0 0.0 0.00 0.00 0.00 69 1017.3
20260830070049 74 316 0.0 0.0 0.00 0.00 0.00 70 1017.3
20260830065545 74 319 0.0 0.0 0.00 0.00 0.00 71 1017.3
20260830065033 73 319 0.0 0.0 0.00 0.00 0.00 72 1017.3
20260830064536 73 319 0.0 0.0 0.00 0.00 0.00 73 1017.2
20260830064109 73 319 0.0 0.0 0.00 0.00 0.00 73 1017.2
20260830063546 73 319 0.0 0.0 0.00 0.00 0.00 74 1017.2
20260830063055 72 319 0.0 0.0 0.00 0.00 0.00 73 1017.2
20260830062556 72 319 0.0 0.0 0.00 0.00 0.00 70 1017.2
20260830062038 71 319 0.0 0.0 0.00 0.00 0.00 72 1017.2
20260830061543 71 319 0.0 0.0 0.00 0.00 0.00 73 1017.1
20260830061058 71 319 0.0 0.0 0.00 0.00 0.00 74 1017.1
20260830060534 70 319 0.0 0.0 0.00 0.00 0.00 75 1017.2
20260830060040 70 319 0.0 0.0 0.00 0.00 0.00 76 1017.1
20260830055541 69 319 0.0 0.0 0.00 0.00 0.00 76 1017.1
20260830055042 69 319 0.0 0.0 0.00 0.00 0.00 76 1017.0
20260830054602 68 319 0.0 0.0 0.00 0.00 0.00 77 1017.0
20260830054059 68 319 0.0 0.0 0.00 0.00 0.00 78 1017.0
20260830053533 67 319 0.0 0.0 0.00 0.00 0.00 78 1016.9
20260830053038 67 319 0.0 0.0 0.00 0.00 0.00 80 1016.9
20260830052541 67 319 0.0 0.0 0.00 0.00 0.00 79 1016.9
20260830052032 67 319 0.0 0.0 0.00 0.00 0.00 79 1016.9
20260830051553 66 319 0.0 0.0 0.00 0.00 0.00 79 1016.8
20260830051041 66 319 0.0 0.0 0.00 0.00 0.00 80 1016.8
20260830050602 66 319 0.0 0.0 0.00 0.00 0.00 79 1016.8
20260830050058 66 319 0.0 0.0 0.00 0.00 0.00 79 1016.7
20260830045541 67 319 0.0 0.0 0.00 0.00 0.00 78 1016.6
20260830045059 67 319 0.0 0.0 0.00 0.00 0.00 77 1016.6